Regional Weather Roundup
Issued by NWS Green Bay, WI

Home | Current Version | Previous Version | Graphics & Text | Print | Product List | Glossary Off
Versions: 1 2 3 4 5 6 7 8 9 10 11 12 13 14 15 16 17 18 19 20 21 22 23 24 25 26 27 28 29 30 31 32 33 34 35 36 37 38 39 40 41 42 43 44 45 46 47 48 49 50

000
ASUS43 KGRB 291901
RWRGRB

NORTH-CENTRAL AND NORTHEAST WISCONSIN REGIONAL WEATHER ROUNDUP
NATIONAL WEATHER SERVICE GREEN BAY WI
200 PM CDT SAT AUG 29 2015

WIZ005-009-010>012-018-019-292000-
NORTH CENTRAL WISCONSIN

CITY           SKY/WX    TMP DP  RH WIND       PRES   REMARKS
IRONWOOD       CLOUDY    73  63  68 W5        30.01S
MANITOWISH WTR NOT AVBL
ARBOR VITAE    NOT AVBL
EAGLE RIVER    NOT AVBL
LAND O LAKES   NOT AVBL
RHINELANDER    MOSUNNY   70  58  65 SW6       30.08F
PHILLIPS       NOT AVBL
ANTIGO         NOT AVBL
TOMAHAWK       NOT AVBL
MERRILL        NOT AVBL
$$

WIZ013-073-292000-
NORTHEAST WISCONSIN

CITY           SKY/WX    TMP DP  RH WIND       PRES   REMARKS
IRON MOUNTAIN  CLOUDY    73  59  61 VRB3      30.04F
MARINETTE      CLOUDY    66  59  77 SW6       30.06F
$$

WIZ017-030-035>037-045-292000-
CENTRAL WISCONSIN

CITY           SKY/WX    TMP DP  RH WIND       PRES   REMARKS
MEDFORD        NOT AVBL
WAUSAU         CLOUDY    65  59  81 CALM      30.06S
MOSINEE        CLOUDY    63  61  94 CALM      30.09S
MARSHFIELD     CLOUDY    66  58  75 E6        30.08S
WISC RAPIDS    NOT AVBL
STEVENS POINT  NOT AVBL
WAUPACA        NOT AVBL
SHAWANO        NOT AVBL
CLINTONVILLE   NOT AVBL
WAUTOMA        NOT AVBL
$$

WIZ038-039-048-051-292000-
FOX VALLEY

CITY           SKY/WX    TMP DP  RH WIND       PRES   REMARKS
NWS GREEN BAY  CLOUDY    71  62  73 CALM      30.06F
APPLETON       CLOUDY    68  59  73 CALM      30.05F
OSHKOSH        CLOUDY    67  61  81 E5        30.05S
FOND DU LAC    CLOUDY    69  62  78 CALM      30.05F
$$

WIZ022-050-052-292000-
EAST CENTRAL WISCONSIN

CITY           SKY/WX    TMP DP  RH WIND       PRES   REMARKS
EPHRAIM        NOT AVBL
STURGEON BAY   CLOUDY    66  61  82 S10       30.09S
MANITOWOC      NOT AVBL
SHEBOYGAN      CLOUDY    67  62  84 S6        30.06F
$$

LMZ563-521-522-541>543-292000-
LAKESHORE

STATION/POSITION TIME  TEMP    WIND        PRES    VSBY  WAVE
                       AIR SEA DIR/SP/G                  HT/PER
                 (UTC) (F)     (DEG/KT/KT) (MB)    (MI)  (FT/S)
SHEBOYGAN LKSHOR 1800   59     160/  5/  6 1018.4R
ALGOMA MARINA    1814             CALM       N/A
NORTHPORT PIER   1800   63     140/  9/ 13 1018.3F
N MID LAKE BUOY  1750   63 64  200/  8/ 10 1018.1F         1/ 4
SISTER BAY LKSHO 1804   69     190/ 13/ 15   N/A
CHAMBERS ISLAND  1800   63     250/  5/  9 1018.3F
$$



USA.gov is the U.S. government's official web portal to all federal, state and local government web resources and services.